Moline, IL

3:50 AM CDT on April 26, 2017 (GMT -0500)
Quad-City International

Weather History for KMLI - October, 2012

Change the Weather History Date:

Tuesday, October 23, 2012

  Actual Average Record
Temperature  
Mean Temperature 67 °F 51 °F  
Max Temperature 74 °F 61 °F 85 °F (1963)
Min Temperature 60 °F 40 °F 23 °F (1981)
Degree Days  
Heating Degree Days 0 14  
Month to date heating degree days 295 250  
Since 1 July heating degree days 442 354  
Cooling Degree Days 2 0  
Month to date cooling degree days 2 11  
Year to date cooling degree days 1202 1000  
Growing Degree Days 16 (Base 50)    
Moisture  
Dew Point 62 °F    
Average Humidity 84    
Maximum Humidity 100    
Minimum Humidity 68    
Precipitation  
Precipitation 0.06 in 0.09 in 1.53 in (1991)
Month to date precipitation 2.97 2.18  
Year to date precipitation 23.20 32.43  
Snow  
Snow 0.00 in 0.00 in - ()
Month to date snowfall 0.0 0.0  
Since 1 July snowfall T 0.0  
Since 1 September snowfall T 0.0  
Snow Depth 0.00 in    
Sea Level Pressure  
Sea Level Pressure 29.84 in    
Wind  
Wind Speed 7 mph (SE)    
Max Wind Speed 15 mph    
Max Gust Speed 20 mph    
Visibility 7 miles    
Events Rain    
T = Trace of Precipitation, MM = Missing Value Source: NWS Daily Summary

Daily Weather History Graph

Daily Weather History Graph

Search for Another Location

Airport or City:

Trip Planner

Search our weather history database for the weather conditions in past years. The results will help you decide how hot, cold, wet, or windy it might be!

Date:

Astronomy

Oct. 23, 2012 Rise Set
Actual Time 7:23 AM CDT 6:08 PM CDT
Civil Twilight 6:55 AM CDT 6:36 PM CDT
Nautical Twilight 6:23 AM CDT 7:08 PM CDT
Astronomical Twilight 5:50 AM CDT 7:40 PM CDT
Moon 2:55 PM CDT (10/23) 1:11 AM CDT (10/23)
Length of Visible Light 11h 41m
Length of Day
10h 44m
Waxing Gibbous, 67% of the Moon is Illuminated
Oct 23
Waxing Gibbous
Oct 29
Full
Nov 6
Last Quarter
Nov 13
New
Nov 20
First Quarter

Hourly Weather History & Observations

Time (CDT) Temp. Dew Point Humidity Pressure Visibility Wind Dir Wind Speed Gust Speed Precip Events Conditions
12:03 AM 60.8 °F 59.0 °F 94% 29.85 in 1.2 mi East 3.5 mph - N/A   Clear
12:12 AM 60.8 °F 59.0 °F 94% 29.85 in 0.8 mi East 3.5 mph - N/A   Partly Cloudy
12:22 AM 60.8 °F 59.0 °F 94% 29.85 in 1.2 mi East 4.6 mph - N/A   Mostly Cloudy
12:30 AM 60.8 °F 60.8 °F 100% 29.85 in 1.5 mi East 3.5 mph - N/A   Scattered Clouds
1:24 AM 62.6 °F 60.8 °F 94% 29.84 in 3.0 mi ENE 4.6 mph - N/A   Mostly Cloudy
1:42 AM 60.8 °F 60.8 °F 100% 29.84 in 2.5 mi East 3.5 mph - N/A   Clear
1:52 AM 61.0 °F 60.1 °F 97% 29.85 in 2.5 mi East 4.6 mph - N/A   Partly Cloudy
2:16 AM 60.8 °F 60.8 °F 100% 29.85 in 3.0 mi East 6.9 mph - N/A   Clear
2:52 AM 61.0 °F 60.1 °F 97% 29.85 in 3.0 mi East 8.1 mph - N/A   Clear
3:34 AM 60.8 °F 59.0 °F 94% 29.85 in 2.5 mi East 4.6 mph - N/A   Partly Cloudy
3:52 AM 61.0 °F 60.1 °F 97% 29.84 in 4.0 mi ENE 4.6 mph - N/A   Mostly Cloudy
5:52 AM 62.1 °F 61.0 °F 96% 29.84 in 6.0 mi Calm Calm - N/A   Overcast
6:52 AM 63.0 °F 62.1 °F 97% 29.85 in 6.0 mi Calm Calm - 0.03 in   Mostly Cloudy
7:52 AM 64.9 °F 63.0 °F 93% 29.85 in 5.0 mi SSW 3.5 mph - N/A   Mostly Cloudy
8:52 AM 66.9 °F 64.0 °F 90% 29.87 in 7.0 mi SSW 9.2 mph - N/A   Overcast
9:52 AM 64.9 °F 62.1 °F 90% 29.88 in 4.0 mi SW 8.1 mph - 0.03 in Rain Light Rain
10:52 AM 66.9 °F 63.0 °F 87% 29.88 in 10.0 mi South 3.5 mph - 0.00 in   Overcast
11:52 AM 66.9 °F 63.0 °F 87% 29.87 in 10.0 mi South 4.6 mph - N/A   Overcast
12:52 PM 70.0 °F 62.1 °F 76% 29.85 in 10.0 mi SSW 6.9 mph - N/A   Overcast
1:52 PM 71.1 °F 63.0 °F 75% 29.83 in 10.0 mi South 5.8 mph - N/A   Overcast
2:52 PM 73.0 °F 63.0 °F 71% 29.80 in 10.0 mi South 13.8 mph 19.6 mph N/A   Overcast
3:52 PM 72.0 °F 63.0 °F 73% 29.79 in 10.0 mi South 9.2 mph - N/A   Overcast
4:52 PM 72.0 °F 63.0 °F 73% 29.79 in 10.0 mi SSE 10.4 mph - N/A   Overcast
5:52 PM 71.1 °F 63.0 °F 75% 29.81 in 10.0 mi SSE 6.9 mph - N/A   Overcast
6:26 PM 69.8 °F 62.6 °F 78% 29.82 in 10.0 mi SE 6.9 mph - N/A   Overcast
6:52 PM 69.1 °F 63.0 °F 81% 29.82 in 10.0 mi SSE 6.9 mph - N/A   Overcast
7:52 PM 68.0 °F 63.0 °F 84% 29.83 in 10.0 mi SSE 9.2 mph - N/A   Mostly Cloudy
8:52 PM 66.0 °F 62.1 °F 87% 29.85 in 10.0 mi South 6.9 mph - N/A   Overcast
9:52 PM 64.9 °F 62.1 °F 90% 29.85 in 10.0 mi SSE 8.1 mph - N/A   Scattered Clouds
10:52 PM 64.0 °F 62.1 °F 93% 29.86 in 10.0 mi SSE 4.6 mph - N/A   Scattered Clouds
11:52 PM 64.0 °F 62.1 °F 93% 29.86 in 10.0 mi SSE 9.2 mph - N/A   Mostly Cloudy